When you browse on this site, cookies collect data to enhance your experience and personalize the content and advertising you see.
Visit our Privacy Policy to learn more. By continuing to use the site, you agree to this use of cookies and data.
  • Em Portugal
  • Lista de países
  • Para 7 dias
  • Temperatura da água
  • Mapa do tempo
  • Widgets de tempo
  • user-avatar
    Iniciar Sessão

    Previsão horária em Hrazdan

    Hoje, 24 Outubro, Quinta-feira

    Tempo Temperatura Precipitação Vento Pressão Humidade
    00:00 +6°C° 0 mm 1 m/s 614 mmHg 78%
    01:00 +6°C° 0 mm 1 m/s 614 mmHg 79%
    02:00 +6°C° 0 mm 1 m/s 613 mmHg 80%
    03:00 +5°C° 0 mm 1 m/s 613 mmHg 81%
    04:00 +5°C° 0 mm 1 m/s 613 mmHg 80%
    05:00 +5°C° 0 mm 1 m/s 613 mmHg 79%
    06:00 +5°C° 0 mm 1 m/s 613 mmHg 78%
    07:00 +7°C° 0 mm 1 m/s 614 mmHg 71%
    08:00 +8°C° 0 mm 1 m/s 615 mmHg 64%
    09:00 +10°C° 0 mm 1 m/s 616 mmHg 56%
    10:00 +11°C° 0 mm 1 m/s 616 mmHg 54%
    11:00 +12°C° 0 mm 1 m/s 616 mmHg 51%
    12:00 +13°C° 0 mm 1 m/s 616 mmHg 48%
    13:00 +14°C° 0 mm 1 m/s 616 mmHg 48%
    14:00 +14°C° 0 mm 1 m/s 616 mmHg 47%
    15:00 +14°C° 0 mm 1 m/s 615 mmHg 46%
    16:00 +12°C° 0 mm 1 m/s 615 mmHg 54%
    17:00 +11°C° 0 mm 1 m/s 614 mmHg 62%
    18:00 +9°C° 0 mm 1 m/s 614 mmHg 70%
    19:00 +9°C° 0 mm 1 m/s 614 mmHg 73%
    20:00 +8°C° 0 mm 1 m/s 614 mmHg 76%
    21:00 +7°C° 0 mm 1 m/s 614 mmHg 80%
    22:00 +7°C° 0 mm 1 m/s 614 mmHg 80%
    23:00 +7°C° 0 mm 1 m/s 614 mmHg 81%

    Amanhã, 25 Outubro, Sexta-feira

    Tempo Temperatura Precipitação Vento Pressão Humidade
    00:00 +6°C° 0 mm 1 m/s 613 mmHg 81%
    01:00 +6°C° 0 mm 1 m/s 613 mmHg 81%
    02:00 +6°C° 0 mm 1 m/s 613 mmHg 81%
    03:00 +6°C° 0 mm 1 m/s 613 mmHg 80%
    04:00 +6°C° 0 mm 1 m/s 613 mmHg 80%
    05:00 +6°C° 0 mm 1 m/s 613 mmHg 79%
    06:00 +6°C° 0 mm 1 m/s 613 mmHg 79%
    07:00 +6°C° 0 mm 0 m/s 613 mmHg 71%
    08:00 +8°C° 0 mm 0 m/s 614 mmHg 64%
    09:00 +10°C° 0 mm 0 m/s 615 mmHg 56%
    10:00 +12°C° 0 mm 1 m/s 615 mmHg 52%
    11:00 +13°C° 0 mm 1 m/s 615 mmHg 47%
    12:00 +14°C° 0 mm 2 m/s 615 mmHg 43%
    13:00 +14°C° 0 mm 2 m/s 615 mmHg 43%
    14:00 +14°C° 0 mm 2 m/s 615 mmHg 43%
    15:00 +14°C° 0 mm 1 m/s 614 mmHg 43%
    16:00 +13°C° 0 mm 1 m/s 614 mmHg 52%
    17:00 +11°C° 0 mm 1 m/s 613 mmHg 60%
    18:00 +8°C° 0 mm 0 m/s 613 mmHg 69%
    19:00 +9°C° 0 mm 1 m/s 613 mmHg 73%
    20:00 +8°C° 0 mm 1 m/s 613 mmHg 76%
    21:00 +8°C° 0 mm 1 m/s 612 mmHg 79%
    22:00 +8°C° 0 mm 1 m/s 612 mmHg 80%
    23:00 +7°C° 0 mm 1 m/s 612 mmHg 81%

    Depois de amanhã, 26 Outubro, Sábado

    Tempo Temperatura Precipitação Vento Pressão Humidade
    00:00 +7°C° 0 mm 1 m/s 612 mmHg 82%
    01:00 +7°C° 0 mm 1 m/s 612 mmHg 82%
    02:00 +6°C° 0 mm 1 m/s 612 mmHg 82%
    03:00 +6°C° 0 mm 1 m/s 612 mmHg 82%
    04:00 +6°C° 0 mm 1 m/s 612 mmHg 82%
    05:00 +6°C° 0 mm 1 m/s 612 mmHg 82%
    06:00 +6°C° 0 mm 1 m/s 612 mmHg 81%
    07:00 +7°C° 0 mm 1 m/s 613 mmHg 74%
    08:00 +9°C° 0 mm 1 m/s 614 mmHg 66%
    09:00 +11°C° 0 mm 1 m/s 614 mmHg 58%
    10:00 +12°C° 0 mm 1 m/s 615 mmHg 53%
    11:00 +13°C° 0 mm 2 m/s 615 mmHg 48%
    12:00 +14°C° 0 mm 2 m/s 615 mmHg 44%
    13:00 +14°C° 0 mm 2 m/s 615 mmHg 45%
    14:00 +14°C° 0 mm 2 m/s 614 mmHg 47%
    15:00 +14°C° 0 mm 2 m/s 614 mmHg 48%
    16:00 +12°C° 0 mm 2 m/s 614 mmHg 57%
    17:00 +10°C° 0 mm 2 m/s 613 mmHg 67%
    18:00 +8°C° 0 mm 2 m/s 613 mmHg 76%
    19:00 +7°C° 0 mm 2 m/s 613 mmHg 79%
    20:00 +7°C° 0 mm 2 m/s 613 mmHg 83%
    21:00 +6°C° 0 mm 2 m/s 613 mmHg 86%
    22:00 +7°C° 0 mm 1 m/s 613 mmHg 85%
    23:00 +6°C° 0 mm 1 m/s 613 mmHg 85%

    , 27 Outubro, Domingo

    Tempo Temperatura Precipitação Vento Pressão Humidade
    00:00 +6°C° 0 mm 1 m/s 613 mmHg 85%
    01:00 +6°C° 0 mm 1 m/s 613 mmHg 84%
    02:00 +6°C° 0 mm 1 m/s 613 mmHg 84%
    03:00 +5°C° 0 mm 1 m/s 613 mmHg 83%
    04:00 +5°C° 0 mm 1 m/s 613 mmHg 82%
    05:00 +5°C° 0 mm 1 m/s 613 mmHg 81%
    06:00 +5°C° 0 mm 1 m/s 613 mmHg 80%
    07:00 +6°C° 0 mm 1 m/s 614 mmHg 70%
    08:00 +8°C° 0 mm 1 m/s 615 mmHg 60%
    09:00 +9°C° 0 mm 0 m/s 616 mmHg 50%
    10:00 +12°C° 0 mm 1 m/s 616 mmHg 46%
    11:00 +13°C° 0 mm 1 m/s 616 mmHg 41%
    12:00 +14°C° 0 mm 1 m/s 616 mmHg 36%
    13:00 +14°C° 0 mm 1 m/s 616 mmHg 36%
    14:00 +14°C° 0 mm 2 m/s 616 mmHg 36%
    15:00 +14°C° 0 mm 2 m/s 615 mmHg 36%
    16:00 +13°C° 0 mm 1 m/s 615 mmHg 44%
    17:00 +11°C° 0 mm 1 m/s 614 mmHg 52%
    18:00 +9°C° 0 mm 1 m/s 614 mmHg 60%
    19:00 +9°C° 0 mm 1 m/s 614 mmHg 62%
    20:00 +8°C° 0 mm 1 m/s 614 mmHg 65%
    21:00 +8°C° 0 mm 1 m/s 614 mmHg 67%
    22:00 +7°C° 0 mm 1 m/s 614 mmHg 68%
    23:00 +7°C° 0 mm 1 m/s 614 mmHg 69%

    27 Outubro, Domingo

    Tempo Temperatura Precipitação Vento Pressão Humidade
    00:00 +6°C° 0 mm 1 m/s 613 mmHg 85%
    01:00 +6°C° 0 mm 1 m/s 613 mmHg 84%
    02:00 +6°C° 0 mm 1 m/s 613 mmHg 84%
    03:00 +5°C° 0 mm 1 m/s 613 mmHg 83%
    04:00 +5°C° 0 mm 1 m/s 613 mmHg 82%
    05:00 +5°C° 0 mm 1 m/s 613 mmHg 81%
    06:00 +5°C° 0 mm 1 m/s 613 mmHg 80%
    07:00 +6°C° 0 mm 1 m/s 614 mmHg 70%
    08:00 +8°C° 0 mm 1 m/s 615 mmHg 60%
    09:00 +9°C° 0 mm 0 m/s 616 mmHg 50%
    10:00 +12°C° 0 mm 1 m/s 616 mmHg 46%
    11:00 +13°C° 0 mm 1 m/s 616 mmHg 41%
    12:00 +14°C° 0 mm 1 m/s 616 mmHg 36%
    13:00 +14°C° 0 mm 1 m/s 616 mmHg 36%
    14:00 +14°C° 0 mm 2 m/s 616 mmHg 36%
    15:00 +14°C° 0 mm 2 m/s 615 mmHg 36%
    16:00 +13°C° 0 mm 1 m/s 615 mmHg 44%
    17:00 +11°C° 0 mm 1 m/s 614 mmHg 52%
    18:00 +9°C° 0 mm 1 m/s 614 mmHg 60%
    19:00 +9°C° 0 mm 1 m/s 614 mmHg 62%
    20:00 +8°C° 0 mm 1 m/s 614 mmHg 65%
    21:00 +8°C° 0 mm 1 m/s 614 mmHg 67%
    22:00 +7°C° 0 mm 1 m/s 614 mmHg 68%
    23:00 +7°C° 0 mm 1 m/s 614 mmHg 69%

    28 Outubro, Segunda-feira

    Tempo Temperatura Precipitação Vento Pressão Humidade
    00:00 +7°C° 0 mm 1 m/s 614 mmHg 71%
    01:00 +7°C° 0 mm 1 m/s 614 mmHg 70%
    02:00 +6°C° 0 mm 1 m/s 613 mmHg 70%
    03:00 +6°C° 0 mm 1 m/s 613 mmHg 69%
    04:00 +6°C° 0 mm 1 m/s 613 mmHg 68%
    05:00 +6°C° 0 mm 1 m/s 613 mmHg 67%
    06:00 +5°C° 0 mm 1 m/s 613 mmHg 66%
    07:00 +6°C° 0 mm 0 m/s 614 mmHg 58%
    08:00 +8°C° 0 mm 0 m/s 614 mmHg 50%
    09:00 +10°C° 0 mm 0 m/s 615 mmHg 43%
    10:00 +12°C° 0 mm 1 m/s 615 mmHg 40%
    11:00 +13°C° 0 mm 1 m/s 615 mmHg 37%
    12:00 +14°C° 0 mm 2 m/s 615 mmHg 34%
    13:00 +14°C° 0 mm 2 m/s 615 mmHg 35%
    14:00 +14°C° 0 mm 2 m/s 615 mmHg 36%
    15:00 +14°C° 0 mm 2 m/s 614 mmHg 37%
    16:00 +13°C° 0 mm 1 m/s 614 mmHg 44%
    17:00 +11°C° 0 mm 1 m/s 613 mmHg 52%
    18:00 +8°C° 0 mm 0 m/s 612 mmHg 59%
    19:00 +8°C° 0 mm 0 m/s 612 mmHg 60%
    20:00 +8°C° 0 mm 0 m/s 612 mmHg 60%
    21:00 +7°C° 0 mm 0 m/s 612 mmHg 61%
    22:00 +7°C° 0 mm 0 m/s 612 mmHg 61%
    23:00 +7°C° 0 mm 0 m/s 611 mmHg 61%

    29 Outubro, Terça-feira

    Tempo Temperatura Precipitação Vento Pressão Humidade
    00:00 +6°C° 0 mm 0 m/s 611 mmHg 60%
    01:00 +7°C° 0 mm 1 m/s 611 mmHg 59%
    02:00 +7°C° 0 mm 1 m/s 611 mmHg 58%
    03:00 +7°C° 0 mm 1 m/s 610 mmHg 57%
    04:00 +6°C° 0 mm 1 m/s 610 mmHg 55%
    05:00 +6°C° 0 mm 1 m/s 610 mmHg 54%
    06:00 +6°C° 0 mm 1 m/s 610 mmHg 53%
    07:00 +7°C° 0 mm 2 m/s 611 mmHg 49%
    08:00 +9°C° 0 mm 2 m/s 611 mmHg 46%
    09:00 +12°C° 0 mm 2 m/s 612 mmHg 43%
    10:00 +12°C° 0 mm 3 m/s 612 mmHg 40%
    11:00 +13°C° 0 mm 3 m/s 612 mmHg 37%
    12:00 +14°C° 0 mm 3 m/s 612 mmHg 34%
    13:00 +14°C° 0 mm 3 m/s 612 mmHg 33%
    14:00 +14°C° 0 mm 3 m/s 612 mmHg 33%
    15:00 +14°C° 0 mm 3 m/s 612 mmHg 32%
    16:00 +12°C° 0 mm 3 m/s 611 mmHg 36%
    17:00 +10°C° 0 mm 2 m/s 611 mmHg 41%
    18:00 +10°C° 0 mm 1 m/s 610 mmHg 45%
    19:00 +9°C° 0 mm 1 m/s 610 mmHg 46%
    20:00 +9°C° 0 mm 1 m/s 610 mmHg 46%
    21:00 +9°C° 0 mm 1 m/s 611 mmHg 47%
    22:00 +9°C° 0 mm 1 m/s 611 mmHg 48%
    23:00 +8°C° 0 mm 1 m/s 611 mmHg 50%
    Mostrar mais